Wind_Speed
43 40 36 37 37 40 45 51 44 40 41 39 33 32 30 32 36 32 29 27 22 23 18 19 21 19 18 19 18 19 19 17 16 13 12 11 10 12 10 9 10 11 11 14 15 16 19 21 23
47 44 40 39 41 45 48 47 47 41 40 40 38 37 37 38 41 40 33 31 30 26 26 23 21 22 19 22 20 20 22 21 21 19 18 15 13 14 15 14 13 14 15 18 17 17 19 21 23
50 47 43 42 44 50 52 48 45 42 42 42 42 41 41 40 42 42 39 36 36 29 28 27 28 25 25 24 23 22 25 25 23 24 22 20 18 16 17 16 17 18 17 18 18 20 23 25 24
49 48 45 46 50 53 52 48 49 46 44 44 46 47 47 42 43 46 47 42 39 36 34 31 33 30 29 29 27 27 24 26 24 25 27 24 20 21 19 18 18 19 19 21 22 24 27 28 26
52 53 48 50 55 57 56 52 51 50 47 46 46 47 46 45 44 47 51 49 45 42 42 32 32 32 33 30 28 30 32 32 33 31 33 28 26 23 24 23 22 23 24 25 27 28 29 31 31
55 56 50 52 57 59 61 57 56 55 54 51 50 49 48 47 47 48 50 51 49 49 46 45 39 36 36 36 33 31 32 35 36 36 34 32 29 28 28 27 27 27 27 28 30 33 35 34 35
56 57 55 54 58 61 65 64 62 62 61 58 56 53 52 51 52 51 51 54 55 54 53 52 51 45 43 44 40 38 38 36 35 36 35 35 35 34 32 32 31 30 31 33 35 36 38 35 37
55 54 56 57 60 64 67 66 66 64 64 64 61 59 57 55 55 55 56 55 59 58 56 58 58 56 52 50 48 46 42 40 39 40 40 40 41 40 38 37 35 35 36 37 39 40 38 38 39
59 54 52 57 62 65 68 65 68 69 69 69 69 67 65 62 61 58 58 59 61 65 63 61 62 61 59 58 56 55 50 44 42 41 42 43 43 42 42 41 39 39 41 42 43 43 40 40 41
62 58 58 60 62 64 69 69 71 70 71 73 75 74 70 69 67 64 61 62 61 67 70 66 64 64 63 64 62 61 57 50 46 44 43 43 44 44 44 44 43 43 44 45 44 41 41 42 42
63 63 65 65 64 65 68 73 73 74 73 75 77 77 76 74 72 71 68 67 66 66 69 72 67 65 63 58 63 62 62 59 53 50 48 47 47 46 47 48 47 46 45 45 42 41 43 43 42
69 68 66 69 72 70 70 72 74 75 75 77 78 81 80 77 77 74 74 73 71 70 70 70 71 69 66 58 52 56 65 63 60 55 48 47 46 46 47 48 47 44 44 44 42 42 43 44 42
68 69 69 70 72 75 77 77 77 78 80 80 81 81 85 84 80 80 79 77 76 75 74 72 74 72 66 57 56 53 54 60 65 59 54 52 52 48 47 49 50 50 47 46 46 43 45 47 47
70 72 75 76 80 81 81 82 82 83 85 83 84 85 87 88 88 86 85 83 80 78 78 77 76 78 72 62 58 60 56 52 52 59 63 61 59 56 54 53 51 51 50 50 48 46 45 47 42
67 68 72 76 79 83 86 85 85 86 87 88 89 89 89 93 93 91 90 89 86 83 81 80 80 79 79 74 69 62 62 60 51 52 55 59 60 58 55 55 54 51 49 47 47 47 45 46 53
73 76 79 82 84 85 85 83 90 93 93 94 96 97 97 98 102 98 95 94 94 91 86 83 81 83 83 82 82 78 68 60 51 50 48 49 48 49 51 53 54 51 51 51 48 50 52 54 56
78 77 80 83 91 94 93 86 90 93 97 100 102 103 104 103 105 109 104 100 97 96 94 91 86 83 83 86 86 85 83 76 66 58 54 51 48 50 52 51 53 53 52 52 51 51 53 55 57
81 83 86 89 96 100 97 91 93 99 102 103 103 105 107 107 104 109 112 107 105 101 99 97 94 88 87 85 87 90 87 85 82 77 66 61 58 55 57 56 56 57 54 53 52 54 54 55 55
85 88 91 95 98 102 105 99 98 106 107 109 110 111 110 110 111 112 115 118 112 107 103 101 99 97 90 88 89 89 92 88 86 81 79 76 71 63 62 60 61 63 61 57 55 52 50 50 55
92 93 97 97 105 107 109 105 106 113 115 119 118 115 115 111 110 114 118 121 122 117 110 106 101 100 98 93 93 90 95 91 89 87 79 77 75 73 70 67 66 62 60 57 54 56 54 55 59
99 101 102 101 109 111 113 109 115 119 124 126 125 124 122 119 118 120 121 123 125 123 121 114 107 102 100 100 94 92 89 96 88 84 83 80 76 75 74 73 69 65 63 57 55 58 57 60 60
104 104 103 103 105 109 109 101 109 119 124 129 130 128 128 131 130 127 126 127 132 129 126 121 116 112 108 105 100 93 93 88 91 87 86 84 79 80 80 79 72 65 64 59 59 59 62 62 58
91 90 89 90 88 91 96 95 97 105 115 123 128 129 130 132 133 133 133 133 136 135 134 130 126 120 117 113 109 101 96 93 93 90 80 79 79 77 75 74 71 68 68 59 57 52 47 50 46
76 73 72 71 74 71 79 78 75 87 94 101 105 112 120 129 134 135 137 138 140 140 139 137 136 131 126 122 116 109 101 95 94 95 88 87 81 80 75 72 70 69 68 64 64 55 51 50 57
60 63 53 43 48 54 51 51 50 62 70 76 81 90 97 104 110 119 127 137 144 144 140 142 143 141 136 129 126 118 110 104 97 98 95 89 83 79 76 79 72 68 65 63 60 61 63 65 72
47 51 43 31 36 44 50 53 56 57 58 63 61 62 72 83 91 95 101 109 117 126 139 147 150 147 147 139 132 126 120 110 102 100 101 90 80 81 75 76 70 69 66 62 61 66 68 71 75
35 40 42 36 36 40 41 44 48 57 64 61 59 48 56 67 71 78 81 87 91 98 108 119 131 145 152 151 138 131 128 119 110 102 104 102 94 84 80 71 71 70 72 73 72 71 76 73 76
32 37 37 40 36 34 36 35 37 47 55 57 63 62 51 50 61 59 61 66 71 77 86 95 108 119 128 141 143 128 126 123 118 112 105 105 101 93 78 75 72 69 70 71 69 74 78 74 77
34 35 37 39 43 35 29 36 47 46 50 52 54 61 59 50 60 54 52 51 58 66 72 80 90 99 109 117 122 115 119 123 120 117 109 109 106 101 87 74 69 67 66 62 58 64 71 72 76
37 38 44 46 45 43 36 35 50 53 52 49 51 55 61 44 55 49 44 45 48 59 65 71 75 79 90 97 103 99 103 108 121 118 115 111 109 96 93 80 68 63 63 62 64 68 72 74 67
Wind_Direction
224 226 231 229 235 236 234 234 233 231 233 235 227 227 225 227 224 213 216 223 221 226 233 244 248 259 244 244 241 244 246 252 254 272 287 296 295 305 310 316 315 328 331 336 321 315 316 320 323
224 226 231 235 240 241 237 233 235 234 236 240 238 232 229 231 232 229 219 226 229 225 234 238 242 259 250 248 250 252 241 248 254 265 287 291 285 295 305 315 313 318 323 322 315 315 311 314 321
227 228 233 240 243 243 239 234 233 235 237 239 244 241 240 237 233 233 232 232 233 227 236 245 244 248 244 247 247 240 243 245 255 270 279 285 278 288 298 307 300 308 314 319 317 311 309 311 318
231 231 233 238 244 247 243 238 241 231 235 239 242 245 245 243 240 237 238 239 229 222 233 243 245 249 240 237 247 251 248 247 255 270 271 279 277 280 289 299 298 301 303 306 309 307 309 307 312
231 233 234 240 244 247 244 240 245 237 233 238 242 242 245 246 241 241 239 238 237 229 229 232 241 243 242 244 246 255 255 256 261 262 270 275 279 280 284 290 294 293 298 303 306 306 305 302 305
236 237 236 241 245 248 247 242 244 244 240 240 239 242 245 246 244 241 244 241 236 235 236 237 237 237 240 249 257 259 261 259 263 267 269 273 277 281 284 288 289 287 292 297 303 306 309 305 300
237 238 239 240 244 248 248 247 245 245 245 244 242 245 243 244 247 248 245 247 244 237 239 242 242 243 241 244 252 259 262 262 265 267 269 269 273 277 280 283 286 285 290 290 297 301 304 305 303
245 245 242 243 243 248 252 252 251 250 251 249 247 248 246 247 245 247 249 248 250 246 240 244 244 249 251 255 255 257 260 262 263 266 267 268 270 274 277 281 280 280 285 287 294 298 301 304 306
248 247 248 247 248 251 256 256 256 254 251 253 252 248 248 248 249 246 247 247 249 252 248 244 246 251 253 257 258 259 259 261 262 263 268 270 270 273 276 278 279 281 282 287 292 296 297 299 303
252 254 251 251 251 252 254 255 255 255 255 253 254 255 251 249 249 249 247 247 247 253 257 252 248 249 256 259 263 261 259 258 258 260 264 267 270 272 274 276 278 279 282 286 290 293 296 298 301
259 258 256 256 255 255 256 258 259 261 259 258 257 255 255 253 250 250 250 249 246 248 254 256 256 255 256 261 265 265 264 260 258 259 263 265 267 270 273 275 277 281 282 286 289 293 295 297 298
261 261 261 260 259 259 256 257 258 258 259 259 258 259 256 254 255 251 249 249 249 248 250 255 256 257 257 258 260 260 259 262 261 260 259 263 265 267 271 275 277 281 282 285 290 295 295 295 295
261 261 259 256 254 253 252 253 255 258 258 259 260 259 260 257 255 255 253 248 247 249 250 249 254 254 256 257 257 259 262 259 259 261 258 261 265 269 273 275 275 277 280 285 289 294 295 295 291
260 259 259 257 254 253 252 251 252 255 257 257 257 258 260 262 257 254 252 252 250 247 249 250 250 255 252 251 255 256 256 257 262 261 260 262 266 269 271 274 277 278 279 283 287 292 295 292 295
265 264 262 261 259 255 252 253 253 253 255 257 257 257 258 260 261 257 256 254 251 249 247 246 249 249 251 248 246 254 259 259 258 263 264 266 268 269 268 270 272 277 279 282 285 291 288 290 295
265 264 264 264 262 259 255 252 252 251 251 253 256 256 254 258 260 258 256 255 256 253 250 247 245 247 248 250 248 246 250 253 251 258 261 262 266 269 272 272 275 277 280 282 286 286 287 290 300
268 266 264 262 263 261 259 255 255 254 252 252 254 256 258 257 259 260 256 254 251 253 254 251 246 244 246 247 249 249 246 247 249 251 255 255 259 267 272 274 277 278 280 283 288 292 295 300 302
270 268 265 262 262 264 263 261 258 257 256 255 253 254 255 256 257 259 262 257 254 250 250 252 251 247 244 245 247 249 249 249 249 249 251 255 256 259 265 271 275 278 279 284 289 291 293 296 298
272 271 269 267 265 264 264 262 259 258 257 256 254 252 252 254 255 255 258 260 257 254 251 246 248 250 246 243 245 246 248 246 249 250 251 253 256 259 263 264 268 273 277 283 285 287 290 285 288
272 270 270 269 266 266 264 263 259 259 258 256 255 256 254 254 253 256 256 257 259 257 253 251 247 246 248 243 241 244 249 247 245 250 252 254 255 256 260 264 267 271 274 275 279 283 284 288 284
277 275 274 270 269 266 262 261 261 259 256 256 255 254 255 254 254 253 254 256 257 257 257 253 251 248 244 242 240 239 245 251 247 246 249 250 252 256 258 261 265 269 271 274 280 283 286 287 284
278 277 274 273 270 267 267 261 259 256 256 255 255 255 253 252 251 251 253 254 255 256 256 256 253 250 247 244 241 238 239 245 250 245 243 247 250 251 256 259 262 264 269 275 282 282 282 284 285
279 276 275 275 273 271 269 267 264 258 257 256 254 252 253 253 253 252 251 251 253 254 255 254 253 252 250 247 245 241 237 238 245 246 244 242 244 247 249 254 257 261 266 271 282 282 280 281 284
278 276 274 274 273 272 272 270 269 263 260 260 257 255 255 254 253 251 250 251 251 250 251 252 252 250 249 248 247 243 239 236 238 246 246 243 240 243 247 251 254 256 261 266 275 275 274 275 287
277 274 272 281 287 289 283 280 273 275 272 260 258 259 258 254 251 251 251 250 250 249 248 249 251 251 249 247 247 245 242 237 234 239 244 244 242 242 243 246 249 257 263 262 269 270 270 275 283
277 278 278 269 283 291 290 287 287 283 279 276 269 261 259 257 256 254 252 250 249 248 247 246 245 246 249 247 245 245 242 239 235 234 240 239 240 240 241 246 249 249 251 255 262 267 271 272 282
264 274 283 293 297 293 283 281 286 288 283 283 281 264 259 261 258 258 253 252 251 250 248 246 245 244 245 246 245 243 243 241 235 232 234 238 239 238 238 239 244 249 254 257 265 269 272 280 284
264 268 284 297 299 292 290 292 292 291 288 285 285 281 273 267 265 258 255 253 254 251 248 246 244 242 241 243 243 242 241 240 239 233 230 235 236 236 236 237 240 248 258 263 267 267 274 277 283
291 291 298 300 302 299 293 316 307 300 300 296 289 282 278 275 261 260 258 253 250 250 247 245 244 242 241 240 240 237 238 238 237 235 231 231 235 236 236 237 239 245 252 259 254 265 270 281 283
293 298 306 309 310 306 303 317 310 305 299 296 287 281 280 271 261 257 259 255 246 247 249 247 244 243 242 239 239 233 232 232 235 235 232 230 232 233 235 235 238 239 245 252 260 264 270 276 279
Height
10924 10927 10930 10932 10933 10931 10931 10937 10943 10950 10956 10962 10968 10971 10974 10972 10970 10971 10972 10973 10975 10977 10980 10982 10984 10985 10986 10986 10985 10986 10987 10987 10987 10988 10988 10989 10989 10989 10989 10988 10987 10987 10987 10987 10986 10985 10984 10982 10982
10919 10922 10925 10927 10927 10923 10923 10930 10939 10947 10951 10955 10960 10964 10965 10966 10966 10966 10969 10971 10972 10974 10975 10978 10979 10980 10981 10983 10982 10983 10984 10985 10985 10986 10986 10987 10987 10987 10987 10987 10985 10985 10985 10984 10984 10983 10980 10979 10979
10915 10919 10921 10923 10919 10913 10916 10928 10936 10942 10947 10950 10953 10956 10958 10959 10961 10962 10964 10968 10969 10973 10972 10973 10974 10975 10976 10978 10979 10978 10980 10981 10982 10983 10984 10985 10985 10985 10985 10985 10983 10982 10982 10982 10980 10979 10977 10975 10975
10910 10914 10916 10917 10910 10910 10914 10924 10925 10935 10941 10944 10947 10948 10949 10957 10960 10960 10961 10962 10964 10966 10967 10968 10970 10971 10971 10973 10974 10975 10977 10978 10979 10979 10980 10981 10981 10981 10982 10982 10981 10980 10980 10979 10977 10976 10975 10972 10971
10905 10907 10911 10908 10903 10903 10910 10918 10920 10926 10933 10936 10938 10940 10944 10947 10951 10951 10952 10957 10960 10961 10962 10963 10964 10966 10967 10967 10968 10970 10972 10974 10975 10975 10976 10976 10977 10977 10978 10978 10978 10977 10976 10976 10974 10972 10971 10969 10967
10901 10902 10906 10903 10898 10898 10902 10911 10913 10915 10920 10926 10930 10933 10937 10939 10940 10942 10943 10946 10950 10953 10954 10955 10957 10958 10960 10962 10963 10964 10966 10968 10970 10971 10972 10973 10973 10973 10973 10974 10974 10973 10972 10971 10969 10968 10967 10966 10964
10894 10896 10900 10898 10892 10890 10890 10900 10905 10907 10910 10916 10921 10925 10930 10932 10932 10935 10938 10938 10940 10944 10946 10948 10949 10952 10953 10955 10957 10958 10960 10963 10964 10966 10966 10968 10968 10968 10967 10969 10969 10969 10968 10966 10966 10965 10963 10962 10960
10889 10892 10895 10893 10886 10882 10881 10891 10896 10902 10903 10904 10912 10916 10921 10923 10926 10929 10930 10932 10931 10933 10938 10941 10943 10944 10946 10948 10951 10953 10953 10956 10958 10960 10960 10961 10962 10962 10962 10963 10963 10963 10963 10961 10960 10960 10959 10957 10956
10879 10884 10886 10885 10879 10877 10874 10882 10885 10890 10893 10894 10893 10901 10905 10910 10912 10918 10921 10923 10922 10920 10927 10932 10934 10936 10939 10941 10943 10945 10947 10948 10951 10953 10953 10954 10955 10956 10956 10957 10957 10957 10957 10956 10955 10954 10953 10952 10951
10869 10873 10875 10874 10873 10872 10868 10868 10866 10875 10878 10881 10881 10884 10893 10898 10902 10905 10910 10912 10915 10910 10910 10920 10927 10931 10932 10934 10936 10938 10939 10940 10943 10945 10946 10948 10948 10949 10950 10950 10950 10950 10950 10949 10949 10949 10948 10947 10946
10861 10861 10861 10864 10864 10864 10861 10856 10858 10859 10863 10865 10867 10871 10876 10882 10889 10894 10897 10900 10903 10905 10903 10906 10914 10920 10923 10925 10927 10929 10932 10933 10935 10938 10939 10940 10940 10942 10942 10943 10943 10943 10943 10942 10942 10943 10942 10941 10940
10848 10848 10851 10852 10852 10851 10849 10845 10845 10845 10849 10848 10851 10852 10862 10870 10872 10880 10886 10888 10891 10895 10897 10898 10901 10905 10909 10913 10916 10917 10920 10924 10928 10930 10931 10931 10931 10933 10934 10934 10935 10935 10935 10934 10935 10936 10936 10935 10934
10832 10833 10836 10837 10836 10833 10834 10835 10831 10834 10833 10833 10833 10835 10833 10848 10857 10860 10867 10872 10880 10884 10886 10891 10888 10894 10898 10900 10903 10906 10908 10910 10915 10921 10923 10923 10923 10925 10925 10925 10926 10927 10927 10927 10928 10930 10930 10928 10927
10817 10819 10818 10817 10814 10817 10820 10822 10825 10818 10814 10819 10818 10817 10816 10816 10832 10841 10846 10851 10861 10868 10872 10875 10881 10879 10888 10892 10892 10893 10896 10900 10904 10908 10911 10914 10916 10917 10916 10916 10917 10918 10919 10920 10921 10923 10923 10921 10920
10802 10803 10799 10796 10797 10798 10802 10805 10804 10804 10801 10800 10800 10800 10801 10794 10801 10819 10827 10832 10838 10846 10853 10859 10863 10867 10871 10880 10883 10883 10885 10889 10895 10898 10900 10904 10907 10907 10908 10908 10909 10910 10911 10911 10913 10916 10916 10914 10913
10785 10785 10782 10776 10772 10772 10776 10789 10783 10783 10783 10781 10777 10777 10782 10780 10773 10787 10800 10813 10814 10823 10832 10838 10847 10852 10857 10860 10865 10871 10874 10878 10886 10888 10890 10893 10896 10897 10898 10899 10899 10901 10902 10904 10906 10908 10909 10908 10906
10764 10768 10763 10760 10746 10744 10749 10770 10765 10760 10760 10762 10759 10758 10758 10763 10758 10750 10769 10783 10795 10801 10808 10818 10828 10835 10838 10844 10847 10853 10859 10866 10874 10880 10881 10884 10887 10890 10889 10890 10891 10892 10893 10895 10898 10900 10901 10901 10899
10742 10741 10741 10739 10724 10716 10728 10746 10745 10738 10734 10737 10740 10738 10735 10738 10746 10735 10727 10751 10763 10779 10788 10794 10802 10815 10822 10828 10831 10832 10844 10851 10861 10866 10871 10873 10877 10881 10881 10882 10882 10881 10883 10887 10891 10892 10893 10892 10890
10718 10715 10713 10706 10702 10695 10698 10713 10723 10706 10704 10702 10702 10704 10714 10719 10721 10720 10713 10704 10728 10745 10759 10776 10783 10789 10802 10811 10813 10817 10821 10834 10843 10851 10857 10861 10865 10870 10871 10873 10874 10872 10873 10879 10881 10884 10883 10881 10880
10690 10689 10681 10685 10670 10668 10667 10681 10686 10676 10675 10665 10672 10682 10685 10699 10702 10693 10691 10687 10688 10703 10728 10741 10759 10772 10779 10790 10793 10801 10800 10814 10826 10836 10844 10848 10850 10857 10860 10863 10865 10863 10864 10870 10872 10875 10874 10872 10870
10657 10654 10650 10650 10635 10634 10633 10651 10641 10640 10629 10631 10639 10649 10659 10667 10670 10668 10665 10662 10662 10670 10685 10710 10730 10744 10755 10762 10774 10787 10788 10790 10815 10827 10829 10831 10839 10842 10847 10851 10853 10853 10855 10859 10863 10864 10865 10863 10860
10624 10615 10613 10607 10600 10593 10590 10609 10605 10594 10596 10594 10600 10613 10620 10624 10632 10641 10641 10641 10631 10641 10652 10671 10694 10711 10725 10738 10752 10770 10777 10782 10787 10805 10808 10815 10827 10831 10834 10837 10841 10842 10844 10849 10853 10854 10853 10854 10851
10593 10586 10578 10567 10564 10561 10555 10564 10558 10559 10549 10551 10563 10572 10582 10588 10595 10607 10610 10611 10605 10616 10622 10635 10650 10675 10691 10707 10724 10745 10762 10774 10766 10781 10793 10805 10810 10813 10820 10826 10830 10833 10835 10839 10843 10842 10845 10845 10843
10561 10559 10553 10548 10540 10537 10532 10536 10525 10522 10519 10518 10531 10540 10548 10553 10556 10565 10570 10571 10573 10582 10593 10600 10612 10632 10656 10671 10691 10716 10738 10754 10763 10760 10776 10787 10794 10798 10808 10813 10818 10820 10824 10830 10832 10833 10836 10837 10833
10540 10536 10538 10533 10522 10517 10517 10513 10508 10498 10493 10497 10502 10505 10510 10510 10515 10518 10524 10530 10536 10546 10561 10570 10578 10590 10612 10641 10659 10681 10708 10726 10744 10747 10752 10768 10780 10789 10797 10800 10805 10809 10816 10821 10822 10823 10827 10827 10824
10518 10517 10518 10524 10517 10512 10502 10498 10491 10483 10477 10471 10479 10483 10479 10477 10477 10482 10488 10492 10499 10507 10518 10531 10542 10552 10563 10596 10626 10646 10671 10698 10721 10732 10732 10750 10763 10775 10787 10790 10796 10802 10805 10808 10809 10811 10814 10816 10815
10512 10507 10504 10506 10503 10500 10492 10484 10477 10463 10455 10455 10453 10459 10457 10451 10454 10454 10462 10464 10467 10474 10481 10488 10500 10516 10529 10547 10589 10616 10640 10664 10693 10711 10721 10728 10742 10759 10773 10782 10790 10793 10795 10798 10801 10801 10800 10804 10803
10502 10497 10495 10491 10491 10489 10480 10475 10466 10454 10445 10440 10432 10433 10435 10434 10428 10433 10438 10442 10444 10448 10452 10457 10465 10477 10493 10512 10548 10582 10606 10633 10658 10680 10701 10708 10720 10738 10759 10769 10780 10786 10789 10791 10794 10794 10795 10795 10792
10488 10485 10484 10479 10474 10471 10472 10461 10447 10441 10432 10425 10420 10413 10413 10415 10408 10411 10417 10423 10423 10423 10425 10432 10436 10447 10464 10481 10507 10551 10571 10600 10625 10653 10676 10687 10701 10723 10743 10757 10770 10780 10783 10787 10791 10788 10787 10787 10784
10479 10475 10470 10463 10460 10453 10453 10451 10431 10423 10416 10412 10405 10397 10391 10395 10393 10395 10400 10401 10404 10403 10408 10410 10416 10428 10438 10458 10480 10519 10541 10563 10596 10622 10646 10667 10683 10709 10725 10746 10760 10771 10775 10779 10779 10779 10780 10779 10776